Hourly Data Report for September 30, 2017

All times are specified in Local Standard Time (LST). Add 1 hour to adjust for Daylight Saving Time where and when it is observed.

ST. PETERS
PRINCE EDWARD ISLAND

46°27'01.000" N
62°34'33.000" W
29.70 m
8300562
71310
ZSP

Download Data

Hourly Data (September 2017)
Hourly Data Report for September 30, 2017
Temp Definition
°C
Dew Point Temp Definition
°C
Rel Hum Definition
%
Wind Dir Definition
10's deg

Wind Spd Definition
km/h
Visibility Definition
km
Stn Press Definition
kPa
Hmdx Definition


Wind Chill Definition


Weather Definition


TIME
00:00 9.3 6.6 83 36 21   101.30     LegendNANA
01:00 9.0 6.3 83 1 11   101.36     LegendNANA
02:00 9.9 5.0 71 36 14   101.40     LegendNANA
03:00 9.9 3.8 66 36 16   101.44     LegendNANA
04:00 9.5 5.0 73 3 11   101.49     LegendNANA
05:00 9.6 4.9 72 35 17   101.57     LegendNANA
06:00 9.5 4.5 71 36 14   101.65     LegendNANA
07:00 8.5 5.7 83 33 19   101.76     LegendNANA
08:00 9.3 4.1 70 1 16   101.82     LegendNANA
09:00 10.1 3.3 63 35 19   101.89     LegendNANA
10:00 10.4 2.7 59 34 15   101.95     LegendNANA
11:00 10.4 3.2 61 34 15   101.99     LegendNANA
12:00 11.1 3.8 61 35 16   102.03     LegendNANA
13:00 10.3 3.0 61 34 11   102.01     LegendNANA
14:00 10.5 3.3 61 31 11   102.01     LegendNANA
15:00 10.3 3.4 62 33 12   102.01     LegendNANA
16:00 10.8 1.9 54 31 16   101.99     LegendNANA
17:00 9.4 2.6 63 33 8   102.01     LegendNANA
18:00 8.1 2.4 68 31 5   102.05     LegendNANA
19:00 7.8 1.9 66 32 7   102.10     LegendNANA
20:00 7.9 2.5 69 32 6   102.12     LegendNANA
21:00 6.3 1.7 72 26 3   102.11     LegendNANA
22:00 4.7 2.0 83 19 8   102.08     LegendNANA
23:00 3.6 1.7 87 21 11   102.05     LegendNANA

Notes on Data Quality.

Legend

  • E = Estimated
  • M = Missing
  • NA = Not Available
  • ‡ = Partner data that is not subject to review by the National Climate Archives
Date modified: